Погода в Бугульме

Погода в Бугульме : погода сейчас, прогноз погоды и архив. Всё, что Вы хотите узнать о погоде в Бугульме!

Хотите узнать прогноз погоды в Бугульме? Тогда Вам сюда: Погода в Бугульме

Поиск расширенной информации на нашем сайте:

Полезная информация:

Другие новости

Новости СМИ2

Главная страница сайта

Новости сайта

03.07.2017

Напоминаем, что на нашем специализированном сайте Метеоцентр.Азия вы можете получить высокодетализированные автоматические прогнозы погоды по пунктам России, СНГ и мира в авиационном формате (включающие направление и скорость ветра, видимость, явления погоды, количество и форму облачности, нижнюю и верхнюю границу облачности).

Рекомендуем:

Погода в Бугульме - сегодня

Время (UTC), дата Ветер
(°,м/с) 
Видим.   Явления Облачность Т
(°С)
Тd
(°С)
f(%) Тe
(°С)
Pmin
(гПа)
dP
(гПа)
Po
(мм)
O2
(г/м3)
Тmin Tmax R s Состояние
почвы
12 15.07.19 290 (З) 10-16{18}  20000 м  слаб. ливневой дождь  10/10 240 м кучево-дожд. 
[Cb calv]
+12.7 +11.7 94 +15  1001.5  2.3  725  277           
15 15.07.19 290 (З) 8-14{16}  20000 м  слаб. ливневой дождь  10/10 360 м кучево-дожд. 
[Cb calv]
+13.5 +12 91 +17  1003.7  2.2  726  276    +14  31     
18 15.07.19 270 (З) 5{14}  10 км  {ливн. осадки}  10/8 480 м кучево-дожд., средняя 
[Cb calv|Ac und]
+13.7 +11.2 85 +16  1005.5  1.7  728  277           
21 15.07.19 240 (ЮЗ) 10 км    10/6 600 м средняя 
[Sc|Ac und]
+13.9 +12.8 93 +20  1006.2  0.7  728  277           
00 16.07.19 260 (З) 20000 м    10/6 630 м средняя, верхняя 
[Sc|Ac trans|Ci fib]
+13.7 +12.3 91 +18  1007.6  1.3  729  277           
03 16.07.19 270 (З) 20000 м    6/3 1000 м верхняя 
[Sc|Ci fib]
+15.5 +12.4 82 +20  1008.9  1.4  730  276  +13.2        влажная 
06 16.07.19 260 (З) 6-10{10}  20000 м    4/0 
[Cu hum]
+19.1 +12.8 67 +25  1010.5  732  273           
09 16.07.19 290 (З) 4{10}  20000 м    6/6 1000 м 
[Cu hum]
+22 +11.7 52 +26  1011.3  1.1  732  271           
12 16.07.19 290 (З) 20000 м    10/6 1000 м кучево-дожд., верхняя 
[Cb calv|Ci fib]
+22.7 +10.5 46 +25  1012.3  733  271           
15 16.07.19 290 (З) 20000 м    10/3 1000 м средняя, верхняя 
[Cu hum|Ac trans|Ci fib]
+20.6 +10.8 53 +23  1012.9  0.3  733  273    +23.1       
18 16.07.19 270 (З) 10 км    10/4 480 м средняя, верхняя 
[Sc|Ac trans|Ci fib]
+15.2 +11.2 77 +20  1014.4  0.9  734  278           
21 16.07.19 тихо ()   10 км    10/4 1000 м средняя 
[Sc|Ac und]
+15.2 +11.2 77 +18  1014.8  0.4  734  278           
00 17.07.19 тихо ()   10 км    10/4 1000 м средняя 
[Sc|Ac und]
+13.8 +11.7 87 +18  1015  734  279           
03 17.07.19 090 (В) 20000 м    10/4 1000 м средняя, верхняя 
[Sc|Ac trans|Ci fib]
+17.3 +12.6 74 +24  1014.8  0.3  735  276  +12.6         
06 17.07.19 120 (ЮВ) 20000 м    10/4 1000 м средняя, верхняя 
[Sc|Ac trans|Ci fib]
+20.5 +12.8 61 +26  1014  -0.5  734  273           
09 17.07.19 100 (В) 20000 м    10/4 1000 м средняя, верхняя 
[Cu med, cong|Ac trans|Ci fib]
+22.7 +13.6 56 +30  1013.2  -0.5  734  270           
12 17.07.19 130 (ЮВ) 20000 м    10/6 1200 м кучево-дожд., средняя, верхняя 
[Cb calv|Ac trans|Ci fib]
+21.6 +13.7 61 +29  1013  -0.3  734  271           
15 17.07.19 120 (ЮВ) 20000 м    10/6 1200 м кучево-дожд., средняя 
[Cb calv|Ac und]
+19.8 +12.9 64 +27  1012.5  -0.7  733  273    +23.7       
18 17.07.19 110 (В) 10 км    8/4 1000 м средняя 
[Sc diur, vesp|Ac trans]
+16.9 +13.4 80 +25  1012.3  -0.5  733  275           
21 17.07.19 100 (В) 10 км    8/3 1500 м средняя 
[Sc|Ac trans]
+15.8 +13.1 84 +23  1011.3  -1.1  732  276           
00 18.07.19 110 (В) 20000 м    10/6 1200 м кучево-дожд., средняя 
[Cb calv|Ac und]
+16 +13.4 85 +23  1010.2  -1  731  276           
03 18.07.19 100 (В) 20000 м    10/6 1200 м средняя, верхняя 
[Sc diur, vesp|Ac trans|Ci fib]
+17.7 +13.9 78 +25  1009.6  -0.4  731  274  +15.6        влажная 
06 18.07.19 080 (В) 20000 м    10/3 1000 м средняя, верхняя 
[Sc|Ac trans|Ci fib]
+22.4 +14.5 61 +31  1008  -0.9  730  269           
09 18.07.19 070 (В) 5{10}  20000 м    6/0 средняя, верхняя 
[Ac trans|Ci fib]
+26.2 +14.8 49 +35  1006.2  -1.3  729  265           
12 18.07.19 070 (В) 5{10}  20000 м    10/3 1000 м средняя, верхняя 
[Sc|Ac trans|Ci fib]
+25.8 +15.9 54 +37  1005.5  -0.7  729  265           
Время (UTC), дата Ветер
(°,м/с) 
Видим.   Явления Облачность Т
(°С)
Тd
(°С)
f(%) Тe
(°С)
Pmin
(гПа)
dP
(гПа)
Po
(мм)
O2
(г/м3)
Тmin Tmax R s Состояние
почвы

Для получения пояснительной информации подведите курсор к названию столбца.

ПОГОДА в Бугульме - архив

Всё, что Вы хотите узнать о погоде в Бугульме - удобно и подробно!

Выберите нужную дату (начиная с 1 января 2018* года) и нажмите кнопку "Найти".
Будут отображены архивные сводки погоды по пункту Бугульма, начиная с указанной даты.


Отображать данные в формате CSV (для использования в таблицах Excel)


Внимание! Наш архив погоды предназначен исключительно для личного некоммерческого использования в познавательных целях. Если Вам необходимы официальные справки о состоянии погоды (для производственных, юридических, коммерческих и т.п. целей), обращайтесь в органы Росгидромета.

*Примечание: данная дата относится к архиву по метеостанциям СССР (Россия, СНГ, Балтия).
Архив по метеостанциям Зарубежной Европы и Азии (кроме Китая) хранится 10 дней, по другим регионам земного шара (Китай, Африка, Америка, Австралия, Океания) - 1 день.

Бугульма - район местоположения метеостанции


Название, широта, долгота, высота метеостанции:
Бугульма 54.6°ш. 52.8°д. 304 м над ур. моря [Российская Федерация]

Дополнительная информация

В oтличие oт бoльшинства пoгoдных сайтoв мы публикуем пoдрoбную метеoинфoрмацию в детальнoм прoфессиoнальнoм фoрмате.

Характеристики температуры и влажнoсти вoздуха измеряются на высoте 2 м в тени вдали oт зданий и деревьев.
Скoрoсть ветра измеряется на высoте 10 м (на урoвне рoста челoвека скoрoсть ветра ниже в 1.5-2 раза). Если метеoстанция нахoдится в гoрoде или в лесу, тo скoрoсть ветра занижена на 2-4 м/с пo сравнению с oткрытым местoм. Скoрoсть ветра над акватoриями крупных рек и oзёр, а также на вершинах хoлмoв на 2-5 м/с выше, чем в oбычных услoвиях.
Атмoсфернoе давление в разных тoчках местнoсти мoжет значительнo oтличаться oт давления на метеoстанции, в зависимoсти oт услoвий рельефа (при пoдъёме на 10 м давление пoнижается примернo на 1 мм рт.ст.).